Regional Weather Roundup
Issued by NWS

Home | Current Version | Previous Version | Graphics & Text | Print | Product List | Glossary On
Versions: 1 2 3 4 5 6 7 8 9 10 11 12 13 14 15 16 17 18 19 20 21 22 23 24 25 26 27 28 29 30 31 32 33 34 35 36 37 38 39 40 41 42 43 44 45 46 47 48 49 50
000
ASUS43 KDTX 031201
RWRMI
MICHIGAN HOURLY REGIONAL WEATHER ROUNDUP
NATIONAL WEATHER SERVICE DETROIT/PONTIAC MI
800 AM EDT FRI JUL 03 2015

NOTE: "FAIR" INDICATES FEW OR NO CLOUDS BELOW 12,000 FEET WITH NO
SIGNIFICANT WEATHER AND/OR OBSTRUCTION TO VISIBILITY.

MIZ047>049-052>055-059>063-066>070-074>076-081>083-031300-
SOUTHEAST LOWER MICHIGAN

CITY           SKY/WX    TMP DP  RH WIND       PRES   REMARKS
ADRIAN         MOSUNNY   59  51  75 E6        30.01R
6HR MIN TEMP:  52; 6HR MAX TEMP:  59;

ALMA           SUNNY     51  51  99 CALM      30.03S
ANN ARBOR      MOSUNNY   57  52  83 E5        30.01R
BAD AXE        SUNNY     49  48  96 CALM      30.03S
CARO           SUNNY     49  47  95 CALM      30.02S
DETROIT CITY   SUNNY     57  50  77 N3        30.01R
6HR MIN TEMP:  53; 6HR MAX TEMP:  58;

DETROIT        PTSUNNY   58  50  75 N7        30.01R
6HR MIN TEMP:  53; 6HR MAX TEMP:  58;

FLINT          SUNNY     56  51  84 CALM      30.03R
6HR MIN TEMP:  48; 6HR MAX TEMP:  56;

GROSSE ILE     MOSUNNY   61  54  77 NE7       29.99R
HILLSDALE      HAZE      58  53  81 E7        30.00S VSB 3/4
6HR MIN TEMP:  53; 6HR MAX TEMP:  58;

HOWELL         MOSUNNY   54  52  93 CALM      30.02R
6HR MIN TEMP:  47; 6HR MAX TEMP:  54;


CITY           SKY/WX    TMP DP  RH WIND       PRES   REMARKS
JACKSON        MOSUNNY   57  53  86 NE5       30.01R
6HR MIN TEMP:  51; 6HR MAX TEMP:  57;

LAMBERTVILLE   MOSUNNY   61  53  73 NE5       30.00R
6HR MIN TEMP:  56; 6HR MAX TEMP:  61;

LANSING        MOSUNNY   55  51  86 CALM      30.02R
6HR MIN TEMP:  48; 6HR MAX TEMP:  55;

LAPEER         FAIR      49  48  96 CALM      30.03S
MASON          MOSUNNY   52  51  95 CALM      30.02R
MONROE         MOSUNNY   58  53  80 CALM      30.00R
MT. CLEMENS    PTSUNNY   56  52  86 N3        30.00R
6HR MIN TEMP:  49; 6HR MAX TEMP:  56;

PONTIAC        PTSUNNY   56  47  71 NE3       30.01R
6HR MIN TEMP:  48; 6HR MAX TEMP:  56;

PORT HOPE        N/A     54  47  77 CALM      30.00S
6HR MIN TEMP:  47; 6HR MAX TEMP:  54;

PORT HURON     SUNNY     52  52 100 CALM      30.02R
TRI CITIES     SUNNY     55  49  80 CALM      30.04R
6HR MIN TEMP:  50; 6HR MAX TEMP:  56;

MIDLAND        FAIR      49  47  92 CALM      30.02S
TROY           SUNNY     59  44  57 NE6       30.03R
SAGINAW HB     SUNNY     52  52 100 CALM      30.02R
$$
MIZ043>046-050>051-056>058-064>065-071>073-077>080-031300-
SOUTHWEST LOWER MICHIGAN

CITY           SKY/WX    TMP DP  RH WIND       PRES   REMARKS
BATTLE CREEK   MOSUNNY   59  53  80 CALM      30.01R
6HR MIN TEMP:  54; 6HR MAX TEMP:  61;

BENTON HARBOR  PTSUNNY   58  54  86 CALM      29.98R
6HR MIN TEMP:  52; 6HR MAX TEMP:  58;

BIG RAPIDS     SUNNY     51  47  87 CALM      30.02S
6HR MIN TEMP:  46; 6HR MAX TEMP:  51;

COLDWATER      MOSUNNY   57  53  86 CALM      30.00R
6HR MIN TEMP:  52; 6HR MAX TEMP:  57;

FREMONT        FAIR      56  51  85 E3        30.01R
HOLLAND        PTSUNNY   58  50  75 E3        30.01R
6HR MIN TEMP:  51; 6HR MAX TEMP:  58;

GRAND RAPIDS   PTSUNNY   55  50  83 E3        30.01R
6HR MIN TEMP:  50; 6HR MAX TEMP:  56;

IONIA          FAIR      54  51  90 CALM      30.01S
KALAMAZOO      MOSUNNY   58  53  84 CALM      30.00S
6HR MIN TEMP:  53; 6HR MAX TEMP:  59;

LUDINGTON      SUNNY     53  51  94 CALM      30.01S
6HR MIN TEMP:  47; 6HR MAX TEMP:  53;

MARSHALL       MOSUNNY   56  53  89 CALM      30.00R
MOUNT PLEASANT SUNNY     51  50  97 CALM      30.02S
6HR MIN TEMP:  44; 6HR MAX TEMP:  51;

MUSKEGON       PTSUNNY   57  50  77 SE3       30.01R
6HR MIN TEMP:  50; 6HR MAX TEMP:  57;

SOUTH HAVEN    MOSUNNY   55  51  86 E3        29.99S
$$
MIZ016>042-031300-
NORTHERN LOWER MICHIGAN

CITY           SKY/WX    TMP DP  RH WIND       PRES   REMARKS
ALPENA         SUNNY     55  42  61 SW5       30.01S
6HR MIN TEMP:  45; 6HR MAX TEMP:  55;

BEAVER ISLAND  MOSUNNY   59  50  74 SW8       29.97F
6HR MIN TEMP:  46; 6HR MAX TEMP:  59;

BELLAIRE       SUNNY     53  50  90 CALM      30.00S
6HR MIN TEMP:  46; 6HR MAX TEMP:  53;

CADILLAC       SUNNY     50  47  90 CALM      30.01S
CHARLEVOIX     PTSUNNY   60  51  73 S6        30.01S
6HR MIN TEMP:  54; 6HR MAX TEMP:  60;

FRANKFORT      SUNNY     57  50  76 CALM      29.99F
GAYLORD        SUNNY     54  44  69 SW5       30.01R
6HR MIN TEMP:  48; 6HR MAX TEMP:  55;

GRAYLING       SUNNY     48  46  91 CALM      30.02S
6HR MIN TEMP:  39; 6HR MAX TEMP:  48;

HARBOR SPRINGS MOSUNNY   59  51  76 SW3       29.99S
HOUGHTON LAKE  SUNNY     49  46  90 E3        30.03R
6HR MIN TEMP:  42; 6HR MAX TEMP:  49;

MANISTEE       SUNNY     50  46  87 CALM      30.02S
OSCODA         SUNNY     52  45  77 CALM      30.01S
PELLSTON       CLOUDY    61  50  67 CALM      29.98S
6HR MIN TEMP:  46; 6HR MAX TEMP:  61;

TRAVERSE CITY  CLOUDY    56  48  74 CALM      29.98S
6HR MIN TEMP:  51; 6HR MAX TEMP:  56;

$$
MIZ007>008-015-031300-
EASTERN UPPER MICHIGAN

CITY           SKY/WX    TMP DP  RH WIND       PRES   REMARKS
KINROSS        PTSUNNY   57  54  88 SW5       29.95S
6HR MIN TEMP:  54; 6HR MAX TEMP:  57;

MACKINAC ISLAN MOSUNNY   61  51  70 SW7       29.97S
6HR MIN TEMP:  55; 6HR MAX TEMP:  61;

NEWBERRY       MOSUNNY   58  49  71 SW8       29.94S
6HR MIN TEMP:  53; 6HR MAX TEMP:  58;

S. S. MARIE    PTSUNNY   59  51  75 CALM      29.94S
6HR MIN TEMP:  55; 6HR MAX TEMP:  59;

$$
MIZ004>006-011>014-085-031300-
CENTRAL UPPER MICHIGAN

CITY           SKY/WX    TMP DP  RH WIND       PRES   REMARKS
MANISTIQUE     SUNNY     58  51  78 SW3       29.95S
ESCANABA       SUNNY     54  50  87 CALM      29.95F
6HR MIN TEMP:  52; 6HR MAX TEMP:  57;

MENOMINEE      SUNNY     55  48  76 CALM      29.97S
6HR MIN TEMP:  52; 6HR MAX TEMP:  57;

SAWYER-GWINN   SUNNY     59  50  72 SW12      29.93S
$$
MIZ001>003-009>011-084-031300-
WESTERN UPPER MICHIGAN

CITY           SKY/WX    TMP DP  RH WIND       PRES   REMARKS
IRON MOUNTAIN  SUNNY     55  51  86 CALM      29.95F
6HR MIN TEMP:  51; 6HR MAX TEMP:  60;

HOUGHTON       CLOUDY    66  53  63 W15       29.87F
6HR MIN TEMP:  66; 6HR MAX TEMP:  68;

COPPER HARBOR    N/A     61  55  81 VRB7G18   29.85F
6HR MIN TEMP:  56; 6HR MAX TEMP:  72; 6HR PCP:  0.15;

IRONWOOD       PTSUNNY   61  55  82 SW7       29.92S
6HR MIN TEMP:  61; 6HR MAX TEMP:  63;

$$

ABBREVIATIONS USED IN REMARKS
   TC - TEMPERATURE IN CELSIUS
  WCI - WIND CHILL INDEX
   HX - HEAT INDEX
  VSB - VISIBILITY



USA.gov is the U.S. government's official web portal to all federal, state and local government web resources and services.